Find Kosmos-2558 subsatellite

NORAD ID: 64627 Int'l Des: 2022-089 Owner: TSKHM Country: RU operational
LEOCIRCULARRETROGRADESSO

Live Position

Loading 3D Globe...

About Kosmos-2558 subsatellite

Description loading...

Upcoming Passes

Passes for default location (London). Set your location on the main map for personalized predictions.

Altitude History

Loading altitude history...

Two-Line Element Set

1 64627U 22089C 26106.71251683 .00005764 00000-0 16270-3 0 9995
2 64627 97.2275 203.5292 0004364 78.1940 281.9794 15.36758446 45185
Epoch: Apr 16, 2026 • Age: 8 hours

Current Status

Altitude 456.7 km
Velocity 7.64 km/s
Sub-Earth Point 15.53°N, 18.06°W
Launch Date Aug 1, 2022
Age 3.7 years
Type other

Technical Details

Classification Payload
Mass 100.00 kg
Dry Mass 100.00 kg
Total Mass 100.00 kg
Length 1.00 m
Diameter 0.40 m
Span 1.00 m
Shape Hex Cyl + Ant
Manufacturer TSKHM
Bus Type Nivelir
Phase Status In Orbit
Owner/State TSKHM/RU

Most Searched